[[{"header":{"parameterUnit":"m.s-1","parameterCategory":1,"la1":30.2991,"la2":30.254,"lo1":-89.0895,"lo2":-89.0444,"dy":0.0017,"dx":0.0017,"nx":28,"ny":28,"refTime":"2024-07-29T03:00:00:Z","depth":0,"parameterNumber":2,"parameterNumberName":"U-component_of_WINDS"},"data":[0,0,0,0,0,0,0,0,0,0,0,0,0,0,0,0,0,0,0,0,0,0,0,0,0,0,0,0,0,0,0,0,0,0,0,0,0,0,0,0,0,0,0,0,0,0,0,0,0,0,0,0,0,0,0,0,0,0,1.8881,1.8882,0,1.9018,1.9019,1.9021,1.9035,1.9034,1.9032,1.9031,1.9179,1.9184,1.9189,0,0,0,0,0,0,0,0,0,0,0,0,0,1.8637,1.8642,1.888,1.8882,1.8884,1.9017,1.9019,1.9021,1.9035,1.9033,1.9032,1.903,1.9177,1.9183,1.919,0,0,0,0,0,0,0,0,0,0,0,0,0,1.8756,1.8643,1.888,1.8907,1.8911,1.9017,1.9019,1.9022,1.9036,1.9033,1.9031,1.9029,1.9175,1.9183,1.9191,1.9282,0,0,1.9215,1.9218,0,0,0,0,0,0,0,0,1.8749,1.8765,1.8901,1.8905,1.891,1.9007,1.8988,1.9109,1.9036,1.8988,1.9031,1.9028,1.9124,1.9136,1.9167,1.9289,1.9295,1.9215,1.922,1.9224,1.9226,0,0,0,0,0,0,0,1.8741,1.8759,1.8935,1.8903,1.8908,1.8914,1.8928,1.9011,1.9067,1.8992,1.8994,1.9009,1.9126,1.9159,1.917,1.9298,1.9215,1.9222,1.9227,1.923,1.9501,1.9504,0,0,0,0,0,0,1.8727,1.8752,1.8931,1.8939,1.8822,1.892,1.8936,1.8978,1.9066,1.9077,1.9011,1.9009,1.9146,1.9161,1.9175,1.9287,1.9224,1.9231,1.9236,1.9499,1.9502,1.9504,0,0,0,0,0,0,1.8721,1.8742,1.8925,1.8846,1.8869,1.8927,1.8973,1.8982,1.9015,1.908,1.909,1.9034,1.9145,1.9164,1.9255,1.9292,1.9235,1.9242,1.9496,1.95,1.9503,1.9512,0,0,0,0,0,0,1.8714,1.874,1.8774,1.8846,1.8874,1.9,1.8976,1.8986,1.9027,1.9027,1.9104,1.9115,1.9145,1.9243,1.9262,1.9302,1.9248,1.9493,1.9498,1.9502,1.9508,1.9515,1.9521,0,0,0,0,0,1.8706,1.8773,1.8776,1.8797,1.8917,1.9002,1.9018,1.9049,1.903,1.9066,1.9107,1.9113,1.9285,1.9252,1.9274,1.9317,1.9491,1.9496,1.9502,1.9506,1.9514,1.9521,0,0,0,0,0,0,1.8707,1.8783,1.8787,1.888,1.8934,1.9004,1.905,1.9057,1.912,1.9117,1.9155,1.9172,1.9261,1.9299,1.926,1.941,1.9386,1.9397,1.9382,1.939,1.9396,1.9385,1.9255,0,0,0,0,0,1.8717,1.8778,1.8843,1.8918,1.8945,1.8993,1.9031,1.905,1.9109,1.9133,1.9181,1.924,1.9307,1.9351,1.9417,1.9514,1.9531,1.9555,1.9561,1.9566,1.9574,1.9627,1.9638,1.9523,1.9523,1.9522,0,0,1.8741,1.879,1.8827,1.892,1.8964,1.9028,1.9012,1.9081,1.9128,1.9144,1.9231,1.9269,1.9337,1.9431,1.9475,1.9465,1.961,1.9573,1.9576,1.9582,1.9634,1.9645,1.9655,1.9526,1.9526,1.9525,0,0,1.8816,1.8859,1.8926,1.897,1.9036,1.9067,1.9083,1.9152,1.9177,1.9264,1.9277,1.9336,1.9452,1.9499,1.9538,1.963,1.9637,1.9651,1.9684,1.9735,1.9745,1.9753,1.9784,1.9795,1.9659,1.9659,1.9659,0,1.8837,1.8931,1.896,1.9027,1.9068,1.9082,1.9151,1.9193,1.9278,1.9307,1.9294,1.9438,1.9485,1.959,1.9611,1.9643,1.9663,1.9642,1.974,1.9749,1.9757,1.9788,1.98,1.966,1.966,1.966,1.966,0,1.8953,1.9019,1.9065,1.9143,1.919,1.9258,1.9298,1.9342,1.9357,1.939,1.9479,1.9536,1.9612,1.9639,1.9656,1.9746,1.9737,1.9732,1.9709,1.9769,1.9798,1.981,1.9662,1.9661,1.9661,1.9661,0,0,1.9033,1.9125,1.9142,1.9177,1.9251,1.9303,1.9372,1.9444,1.948,1.9539,1.9598,1.9694,1.9689,1.9734,1.9756,1.9801,1.9869,1.9791,1.9793,1.9802,1.9971,1.9973,1.9986,1.9874,1.9876,1.9878,1.9964,0,1.9114,1.9234,1.9262,1.9366,1.9426,1.944,1.9501,1.9553,1.9586,1.9643,1.9681,1.9748,1.9737,1.9764,1.9809,1.9851,1.9903,1.9845,1.993,1.9933,1.9911,2.0001,2.0005,2.0083,1.9976,1.9978,1.998,0,1.9226,1.9283,1.9392,1.9456,1.9483,1.9536,1.9604,1.9659,1.9719,1.974,1.9788,1.9806,1.9879,1.9853,1.9955,1.9915,1.9952,1.9978,1.9982,1.999,1.9959,2.0011,2.0109,2.012,1.9998,1.9997,1.9995,0,1.9271,1.9376,1.9454,1.9484,1.9562,1.9599,1.9633,1.9691,1.9733,1.9793,1.982,1.989,1.9927,1.9981,2.0017,1.9995,2.0116,2.0093,2.0136,2.0135,2.016,2.0158,2.0264,2.0186,2.0186,2.0186,2.0185,0,1.9358,1.9424,1.9475,1.9523,1.9597,1.963,1.9703,1.9738,1.979,1.9846,1.9864,1.9917,1.9961,2.0021,2.005,2.013,2.0147,2.0167,2.0173,2.0164,2.0162,2.0188,2.0183,2.0189,2.0188,2.0187,2.0187,0,1.9421,1.9457,1.9543,1.9609,1.9627,1.9679,1.9736,1.9784,1.9817,1.9887,1.9906,1.9958,2.0029,2.007,2.0161,2.018,2.0268,2.0273,2.0246,2.0249,2.0289,2.0284,2.0415,2.0433,2.0344,2.0345,2.0345,0,1.9473,1.9524,1.9594,1.9631,1.9665,1.9727,1.9768,1.9803,1.9845,1.9917,1.9957,2.0028,2.0086,2.0199,2.0246,2.0315,2.0321,2.0362,2.0332,2.032,2.032,2.0316,2.0321,2.0367,2.0368,2.0369,2.0369,0,1.9562,1.9578,1.9635,1.9699,1.9748,1.9801,1.9853,1.9884,1.9927,1.9975,2.0045,2.0091,2.0181,2.0252,2.0324,2.0362,2.0373,2.0378,2.0391,2.0382,2.0364,2.0373,2.0259,2.0375,2.0374,2.0374,2.0374,2.0373,1.9621,1.9666,1.9721,1.9785,1.9828,1.9876,1.9924,1.9961,2.002,2.0094,2.0112,2.0187,2.0246,2.0344,2.0384,2.0443,2.0437,2.0456,2.0461,2.0465,2.0465,2.0355,2.0457,2.0457,2.0457,2.0457,2.0457,0,1.971,1.9746,1.9804,1.9875,1.9926,1.9929,1.9988,2.003,2.0094,2.0148,2.0204,2.0285,2.0354,2.0406,2.0476,2.0514,2.052,2.0531,2.0528,2.0536,2.0468,2.0449,2.0524,2.0524,2.0524,2.0524,2.0524,2.0524,1.9761,1.9837,1.9859,1.9956,1.9993,2.0063,2.0096,2.0142,2.0184,2.0273,2.0328,2.0361,2.0414,2.0488,2.0551,2.0565,2.059,2.0599,2.0613,2.0549,2.0541,2.0534,2.0516,2.0604,2.0604,2.0676,2.0677,2.0677]},{"header":{"parameterUnit":"m.s-1","parameterCategory":1,"la1":30.2991,"la2":30.254,"lo1":-89.0895,"lo2":-89.0444,"dy":0.0017,"dx":0.0017,"nx":28,"ny":28,"refTime":"2024-07-29T03:00:00:Z","depth":0,"parameterNumber":3,"parameterNumberName":"V-component_of_WINDS"},"data":[0,0,0,0,0,0,0,0,0,0,0,0,0,0,0,0,0,0,0,0,0,0,0,0,0,0,0,0,0,0,0,0,0,0,0,0,0,0,0,0,0,0,0,0,0,0,0,0,0,0,0,0,0,0,0,0,0,0,3.8702,3.8702,0,3.8679,3.8679,3.8678,3.8651,3.8651,3.8651,3.865,3.8625,3.8625,3.8625,0,0,0,0,0,0,0,0,0,0,0,0,0,3.8722,3.8722,3.8702,3.8702,3.8702,3.8679,3.8679,3.8678,3.8651,3.8651,3.865,3.865,3.8626,3.8625,3.8625,0,0,0,0,0,0,0,0,0,0,0,0,0,3.8708,3.8722,3.8702,3.8686,3.8684,3.8679,3.8679,3.8678,3.8652,3.8651,3.865,3.865,3.8626,3.8625,3.8625,3.8634,0,0,3.8624,3.8623,0,0,0,0,0,0,0,0,3.8709,3.8707,3.8688,3.8687,3.8685,3.8667,3.8677,3.8664,3.8652,3.8664,3.865,3.865,3.864,3.8638,3.8635,3.8633,3.8632,3.8623,3.8623,3.8623,3.8623,0,0,0,0,0,0,0,3.871,3.8708,3.8693,3.8688,3.8686,3.8679,3.8676,3.8674,3.8656,3.8663,3.8661,3.8658,3.8639,3.8636,3.8634,3.8632,3.8623,3.8623,3.8623,3.8623,3.8635,3.8635,0,0,0,0,0,0,3.8713,3.8709,3.8694,3.8692,3.8695,3.8679,3.8676,3.8674,3.8655,3.8652,3.8659,3.8657,3.8637,3.8635,3.8633,3.8642,3.8623,3.8623,3.8622,3.8634,3.8635,3.8635,0,0,0,0,0,0,3.8714,3.8712,3.8695,3.87,3.8697,3.8679,3.8677,3.8674,3.867,3.8653,3.8649,3.8659,3.8636,3.8634,3.8634,3.8641,3.8622,3.8622,3.8633,3.8634,3.8635,3.866,0,0,0,0,0,0,3.8715,3.8713,3.8716,3.87,3.8697,3.8696,3.8677,3.8674,3.867,3.8667,3.8652,3.8649,3.8635,3.8635,3.8634,3.864,3.8622,3.8633,3.8634,3.8635,3.8658,3.8661,3.8664,0,0,0,0,0,3.8715,3.8724,3.8717,3.8715,3.8702,3.8697,3.8695,3.868,3.8671,3.8674,3.8662,3.8649,3.864,3.8635,3.8633,3.864,3.8632,3.8633,3.8635,3.8657,3.8661,3.8664,0,0,0,0,0,0,3.8742,3.8722,3.8713,3.8718,3.8709,3.8692,3.8696,3.8684,3.8678,3.8676,3.8657,3.8654,3.8656,3.8648,3.8642,3.8647,3.8634,3.8635,3.8652,3.8655,3.8658,3.8659,3.8621,0,0,0,0,0,3.8748,3.8746,3.8729,3.8734,3.8731,3.8714,3.8711,3.87,3.8691,3.8687,3.8675,3.8666,3.8661,3.8658,3.8652,3.8657,3.8653,3.8661,3.8664,3.8666,3.8667,3.8667,3.867,3.8639,3.8639,3.8639,0,0,3.8761,3.875,3.875,3.8739,3.8731,3.8729,3.8711,3.871,3.8708,3.8686,3.8685,3.8677,3.8665,3.8667,3.8667,3.866,3.8674,3.8668,3.867,3.8669,3.8669,3.8672,3.8674,3.864,3.864,3.864,0,0,3.8783,3.8775,3.8778,3.877,3.8759,3.8748,3.8748,3.8733,3.8726,3.8725,3.8709,3.8706,3.8698,3.869,3.8685,3.8703,3.869,3.8702,3.8716,3.8717,3.8719,3.8721,3.8726,3.8729,3.8703,3.8703,3.8703,0,3.88,3.8796,3.8781,3.878,3.8775,3.8757,3.8759,3.8752,3.8739,3.8736,3.8729,3.8717,3.8708,3.8707,3.8712,3.8709,3.8708,3.8703,3.872,3.8722,3.8724,3.8728,3.8731,3.8704,3.8704,3.8704,3.8704,0,3.8818,3.8815,3.8819,3.8807,3.8803,3.8804,3.8787,3.8785,3.8774,3.8764,3.8762,3.875,3.8742,3.8741,3.8731,3.8738,3.8734,3.8724,3.8711,3.8728,3.8732,3.8734,3.8706,3.8706,3.8705,3.8705,0,0,3.8854,3.8834,3.8835,3.8829,3.8814,3.8812,3.8812,3.8803,3.8801,3.8792,3.8791,3.8784,3.8774,3.8769,3.8757,3.8758,3.8771,3.8748,3.8747,3.8751,3.8777,3.8784,3.8786,3.8763,3.8764,3.8764,3.8777,0,3.8873,3.8871,3.8857,3.8859,3.8856,3.8838,3.8837,3.8828,3.8818,3.8813,3.8802,3.8797,3.8786,3.8782,3.8782,3.877,3.8776,3.8769,3.876,3.876,3.8762,3.8788,3.8795,3.8809,3.8779,3.8779,3.8779,0,3.8893,3.8886,3.8888,3.8872,3.8871,3.887,3.8861,3.8857,3.8846,3.8839,3.8832,3.8819,3.8817,3.8805,3.8801,3.8796,3.8792,3.8785,3.8785,3.8783,3.877,3.8785,3.8813,3.8814,3.8782,3.8782,3.8782,0,3.8918,3.8909,3.8908,3.8904,3.8886,3.8886,3.8879,3.8867,3.8863,3.8854,3.8851,3.8843,3.8838,3.8831,3.8816,3.8809,3.8812,3.88,3.8805,3.8805,3.8806,3.8805,3.8832,3.8805,3.8805,3.8805,3.8805,0,3.8938,3.894,3.8919,3.8919,3.8919,3.8903,3.8904,3.8895,3.8884,3.8881,3.8866,3.8863,3.8844,3.8838,3.8827,3.8824,3.8822,3.8815,3.8812,3.8816,3.8816,3.8812,3.881,3.8806,3.8806,3.8806,3.8806,0,3.8965,3.8952,3.895,3.8934,3.893,3.8931,3.8916,3.8915,3.8904,3.89,3.8898,3.8881,3.8874,3.8859,3.8847,3.8839,3.8839,3.8834,3.8843,3.884,3.8846,3.8845,3.8869,3.887,3.8845,3.8845,3.8845,0,3.8979,3.8979,3.8963,3.896,3.8953,3.8949,3.8944,3.8928,3.8924,3.8911,3.891,3.8902,3.8894,3.8884,3.887,3.8861,3.8854,3.8863,3.8853,3.8856,3.8853,3.8852,3.8852,3.8865,3.8866,3.8866,3.8866,0,3.9003,3.8996,3.899,3.8982,3.8977,3.8969,3.8961,3.8959,3.8941,3.8937,3.893,3.8924,3.8912,3.8904,3.8892,3.8884,3.8871,3.887,3.887,3.8874,3.8878,3.8874,3.8847,3.8869,3.8869,3.8869,3.8868,3.8868,3.9022,3.9022,3.901,3.9004,3.8996,3.8988,3.8986,3.8975,3.8969,3.8958,3.8949,3.8943,3.893,3.8914,3.8906,3.89,3.8894,3.8895,3.8895,3.8895,3.8896,3.888,3.8898,3.8898,3.8898,3.8898,3.8898,0,3.9045,3.9036,3.9031,3.902,3.9015,3.9004,3.8994,3.899,3.8985,3.8975,3.8968,3.8959,3.8951,3.8936,3.8926,3.8924,3.8918,3.8922,3.8921,3.8919,3.8903,3.8903,3.8927,3.8927,3.8927,3.8927,3.8927,3.8927,3.9055,3.9053,3.9045,3.9039,3.903,3.9024,3.9019,3.9011,3.9003,3.8994,3.8987,3.8978,3.8966,3.8955,3.8946,3.8942,3.8939,3.8944,3.8938,3.8923,3.892,3.8918,3.8917,3.8944,3.8944,3.8954,3.8954,3.8954]}]]